Weather History for KHFD - February, 2013

Change the Weather History Date:

Wednesday, February 20, 2013

  Actual Average Record
Temperature  
Mean Temperature 32 °F -  
Max Temperature 39 °F 41 °F 69 °F (1930)
Min Temperature 26 °F 21 °F -3 °F (1936)
Degree Days  
Heating Degree Days 32    
Moisture  
Dew Point 16 °F    
Average Humidity 54    
Maximum Humidity 82    
Minimum Humidity 38    
Precipitation  
Precipitation 0.00 in - - ()
Sea Level Pressure  
Sea Level Pressure 29.75 in    
Wind  
Wind Speed 9 mph (WNW)    
Max Wind Speed 16 mph    
Max Gust Speed 24 mph    
Visibility 10 miles    
Events Rain    
Averages and records for this station are not official NWS values.
T = Trace of Precipitation, MM = Missing Value Source: NWS Daily Summary

Daily Weather History Graph

Daily Weather History Graph

Search for Another Location

Airport or City:

Trip Planner

Search our weather history database for the weather conditions in past years. The results will help you decide how hot, cold, wet, or windy it might be!

Date:

Astronomy

Feb. 20, 2013 Rise Set
Actual Time 6:38 AM EST 5:30 PM EST
Civil Twilight 6:10 AM EST 5:58 PM EST
Nautical Twilight 5:38 AM EST 6:31 PM EST
Astronomical Twilight 5:06 AM EST 7:03 PM EST
Moon 12:46 PM EST (2/20) 2:59 AM EST (2/20)
Length of Visible Light 11h 48m
Length of Day
10h 51m
Waxing Gibbous, 76% of the Moon is Illuminated
Feb 20
Waxing Gibbous
Feb 25
Full
Mar 4
Last Quarter
Mar 11
New
Mar 19
First Quarter

Hourly Weather History & Observations

Time (EST) Temp. Windchill Dew Point Humidity Pressure Visibility Wind Dir Wind Speed Gust Speed Precip Events Conditions
12:53 AM 39.0 °F 34.0 °F 34.0 °F 82% 29.62 in 10.0 mi WSW 6.9 mph - N/A   Mostly Cloudy
1:53 AM 37.9 °F 32.1 °F 32.0 °F 79% 29.63 in 10.0 mi West 8.1 mph - N/A   Mostly Cloudy
2:06 AM 37.4 °F 31.4 °F 32.0 °F 81% 29.64 in 10.0 mi NNW 8.1 mph 17.3 mph 0.00 in Rain Light Rain
2:29 AM 35.6 °F 30.7 °F 30.2 °F 81% 29.65 in 10.0 mi NNW 5.8 mph - 0.00 in   Overcast
2:53 AM 36.0 °F 33.3 °F 28.0 °F 73% 29.66 in 10.0 mi Variable 3.5 mph - 0.00 in   Overcast
3:53 AM 36.0 °F 27.5 °F 25.0 °F 64% 29.66 in 10.0 mi WNW 12.7 mph 19.6 mph N/A   Overcast
4:53 AM 34.0 °F 23.8 °F 24.1 °F 67% 29.68 in 10.0 mi NNW 16.1 mph 21.9 mph N/A   Overcast
5:53 AM 33.1 °F 23.4 °F 19.0 °F 56% 29.70 in 10.0 mi NW 13.8 mph 23.0 mph N/A   Overcast
6:53 AM 32.0 °F 24.8 °F 15.1 °F 50% 29.73 in 10.0 mi WNW 8.1 mph 18.4 mph N/A   Overcast
8:53 AM 32.0 °F 22.1 °F 12.0 °F 44% 29.76 in 10.0 mi WNW 13.8 mph 21.9 mph N/A   Mostly Cloudy
9:53 AM 32.0 °F 22.1 °F 10.9 °F 42% 29.77 in 10.0 mi NW 13.8 mph 21.9 mph N/A   Overcast
10:53 AM 33.1 °F 23.9 °F 10.9 °F 40% 29.77 in 10.0 mi WNW 12.7 mph 21.9 mph N/A   Mostly Cloudy
11:53 AM 33.1 °F 24.4 °F 10.9 °F 40% 29.75 in 10.0 mi WNW 11.5 mph 23.0 mph N/A   Mostly Cloudy
12:53 PM 32.0 °F 21.2 °F 10.0 °F 40% 29.74 in 10.0 mi West 16.1 mph 23.0 mph N/A   Overcast
1:53 PM 32.0 °F 22.5 °F 10.0 °F 40% 29.74 in 10.0 mi West 12.7 mph 20.7 mph N/A   Overcast
4:53 PM 30.9 °F 21.2 °F 9.0 °F 40% 29.79 in 10.0 mi WNW 12.7 mph 24.2 mph N/A   Mostly Cloudy
5:53 PM 28.9 °F 19.2 °F 9.0 °F 43% 29.81 in 10.0 mi West 11.5 mph 20.7 mph N/A   Clear
6:53 PM 28.9 °F 19.8 °F 6.1 °F 38% 29.83 in 10.0 mi WNW 10.4 mph 19.6 mph N/A   Clear
7:53 PM 28.0 °F 20.0 °F 7.0 °F 41% 29.85 in 10.0 mi WNW 8.1 mph 17.3 mph N/A   Partly Cloudy
8:53 PM 27.0 °F 18.7 °F 8.1 °F 45% 29.86 in 10.0 mi WNW 8.1 mph 18.4 mph N/A   Clear
9:53 PM 26.1 °F 19.4 °F 9.0 °F 49% 29.87 in 10.0 mi West 5.8 mph - N/A   Clear
10:53 PM 26.1 °F 21.9 °F 9.0 °F 49% 29.89 in 10.0 mi West 3.5 mph - N/A   Mostly Cloudy
11:53 PM 26.1 °F 19.4 °F 10.0 °F 51% 29.89 in 10.0 mi West 5.8 mph - N/A   Scattered Clouds